Starlink 32782

operational
NORAD ID: 62821 Int'l Des: 2025-018 Owner: SPXS Country: US Constellation: starlink
LEOCIRCULAR

Starlink 32782について

説明を読み込み中...

リアルタイム位置

3D地球を読み込み中...

次回通過

高度履歴

Altitude vs Time

uPlot chart will show altitude changes over time

軌道要素

1 62821U 25018R 26034.48703813 .00028875 00000-0 98411-3 0 9990
2 62821 53.1579 108.3397 0001287 81.2331 278.8815 15.30171578 57940
Epoch: Feb 3, 2026 • Age: 16 hours

現在のステータス

高度 475.0 km
速度 7.63 km/s
衛星直下点 11.25°N, 71.88°W
打ち上げ日 Jan 24, 2025
運用期間 1 years
タイプ internet

技術仕様

分類 Payload
質量 730.00 kg
乾燥質量 700.00 kg
総質量 730.00 kg
長さ 0.30 m
直径 4.10 m
スパン 29.00 m
形状 Box + pan
製造者 SPXS
バスタイプ Starlink V2M
フェーズステータス In Orbit
所有者/国 SPXS/US

大規模コンステレーション

Loading constellations...